Location: Cisewo
(53.3833°N, 14.9000°E)
Time: 10:53:49
(UTC+00:00)

MetOp-A - Pass Details

Date: 18 April 2021
Orbit: 819 x 821 km, 98.5° (Epoch: 15 May)

Event Time Altitude Azimuth Distance (km) Brightness Sun altitude
Rises 18:34:38 0° 169° (S) 3,343 7.0 -4.7°
Reaches altitude 10° 18:36:59 10° 171° (S) 2,414 6.3 -5.0°
Maximum altitude 18:42:19 72° 256° (WSW) 867 4.5 -5.7°
Drops below altitude 10° 18:47:42 10° 341° (NNW) 2,430 7.4 -6.4°
Sets 18:50:04 0° 344° (NNW) 3,367 8.1 -6.7°
